Time,TemperatureF,DewpointF,PressureIn,WindDirection,WindDirectionDegrees,WindSpeedMPH,WindSpeedGustMPH,Humidity,HourlyPrecipIn,Conditions,Clouds,dailyrainin,SolarRadiationWatts/m^2,SoftwareType,DateUTC
2013-02-09 01:00:00,26.0,23.0,29.84,WNW,291,8.0,-999.0,88,-99.99,,,-99.99,0.030000,,2013-02-09 08:00:00,
2013-02-09 01:52:00,26.0,23.0,29.84,WNW,291,8.0,-999.0,88,-99.99,,,-99.99,0.030000,,2013-02-09 08:52:00,
2013-02-09 02:00:00,25.0,22.0,29.85,West,273,8.0,-999.0,88,-99.99,,,-99.99,0.050000,,2013-02-09 09:00:00,
2013-02-09 02:52:00,25.0,22.0,29.85,West,273,8.0,-999.0,88,-99.99,,,-99.99,0.050000,,2013-02-09 09:52:00,
2013-02-09 03:00:00,25.0,22.0,29.84,West,275,8.0,-999.0,88,-99.99,,,-99.99,0.040000,,2013-02-09 10:00:00,
2013-02-09 03:52:00,25.0,22.0,29.84,West,275,8.0,-999.0,88,-99.99,,,-99.99,0.040000,,2013-02-09 10:52:00,
2013-02-09 04:00:00,23.0,19.0,29.82,West,278,4.0,-999.0,84,-99.99,,,-99.99,0.040000,,2013-02-09 11:00:00,
2013-02-09 04:52:00,23.0,19.0,29.82,West,278,4.0,-999.0,84,-99.99,,,-99.99,0.040000,,2013-02-09 11:52:00,
2013-02-09 05:00:00,23.0,18.0,29.82,West,275,5.0,-999.0,83,-99.99,,,-99.99,0.040000,,2013-02-09 12:00:00,
2013-02-09 05:52:00,23.0,18.0,29.82,West,275,5.0,-999.0,83,-99.99,,,-99.99,0.040000,,2013-02-09 12:52:00,
2013-02-09 06:00:00,26.0,18.0,29.82,West,273,5.0,-999.0,72,-99.99,,,-99.99,0.030000,,2013-02-09 13:00:00,
2013-02-09 06:52:00,26.0,18.0,29.82,West,273,5.0,-999.0,72,-99.99,,,-99.99,0.030000,,2013-02-09 13:52:00,
2013-02-09 07:00:00,24.0,19.0,29.81,West,273,6.0,-999.0,81,-99.99,,,-99.99,0.100000,,2013-02-09 14:00:00,
2013-02-09 07:52:00,24.0,19.0,29.81,West,273,6.0,-999.0,81,-99.99,,,-99.99,0.100000,,2013-02-09 14:52:00,
2013-02-09 08:00:00,26.0,18.0,29.82,SW,216,5.0,-999.0,73,-99.99,,,-99.99,21.020000,,2013-02-09 15:00:00,
2013-02-09 08:52:00,26.0,18.0,29.82,SW,216,5.0,-999.0,73,-99.99,,,-99.99,21.020000,,2013-02-09 15:52:00,
2013-02-09 09:00:00,27.0,21.0,29.82,WNW,285,2.0,-999.0,78,-99.99,,,-99.99,142.399994,,2013-02-09 16:00:00,
2013-02-09 09:52:00,27.0,21.0,29.82,WNW,285,2.0,-999.0,78,-99.99,,,-99.99,142.399994,,2013-02-09 16:52:00,
2013-02-09 10:00:00,33.0,23.0,29.81,WNW,282,4.0,-999.0,68,-99.99,,,-99.99,262.799988,,2013-02-09 17:00:00,
2013-02-09 10:52:00,33.0,23.0,29.81,WNW,282,4.0,-999.0,68,-99.99,,,-99.99,262.799988,,2013-02-09 17:52:00,
2013-02-09 11:00:00,36.0,23.0,29.81,SSW,207,4.0,-999.0,59,-99.99,,,-99.99,355.700012,,2013-02-09 18:00:00,
2013-02-09 11:52:00,36.0,23.0,29.81,SSW,207,4.0,-999.0,59,-99.99,,,-99.99,355.700012,,2013-02-09 18:52:00,
2013-02-09 12:00:00,38.0,22.0,29.79,SW,225,4.0,-999.0,52,-99.99,,,-99.99,410.799988,,2013-02-09 19:00:00,
2013-02-09 12:52:00,38.0,22.0,29.79,SW,225,4.0,-999.0,52,-99.99,,,-99.99,410.799988,,2013-02-09 19:52:00,
2013-02-09 13:00:00,39.0,22.0,29.78,WNW,283,3.0,-999.0,50,-99.99,,,-99.99,422.100006,,2013-02-09 20:00:00,
2013-02-09 13:52:00,39.0,22.0,29.78,WNW,283,3.0,-999.0,50,-99.99,,,-99.99,422.100006,,2013-02-09 20:52:00,
2013-02-09 14:00:00,40.0,17.0,29.76,West,278,3.0,-999.0,39,-99.99,,,-99.99,388.000000,,2013-02-09 21:00:00,
2013-02-09 14:52:00,40.0,17.0,29.76,West,278,3.0,-999.0,39,-99.99,,,-99.99,388.000000,,2013-02-09 21:52:00,
2013-02-09 15:00:00,40.0,20.0,29.74,West,281,5.0,-999.0,43,-99.99,,,-99.99,317.000000,,2013-02-09 22:00:00,
2013-02-09 15:52:00,40.0,20.0,29.74,West,281,5.0,-999.0,43,-99.99,,,-99.99,317.000000,,2013-02-09 22:52:00,
2013-02-09 16:00:00,36.0,24.0,29.74,WNW,296,5.0,-999.0,61,-99.99,,,-99.99,152.500000,,2013-02-09 23:00:00,
2013-02-09 16:52:00,36.0,24.0,29.74,WNW,296,5.0,-999.0,61,-99.99,,,-99.99,152.500000,,2013-02-09 23:52:00,
2013-02-09 17:00:00,33.0,25.0,29.75,West,271,5.0,-999.0,72,-99.99,,,-99.99,67.809998,,2013-02-10 00:00:00,
2013-02-09 17:52:00,33.0,25.0,29.75,West,271,5.0,-999.0,72,-99.99,,,-99.99,67.809998,,2013-02-10 00:52:00,
2013-02-09 18:00:00,30.0,24.0,29.77,WNW,287,5.0,-999.0,80,-99.99,,,-99.99,3.040000,,2013-02-10 01:00:00,
2013-02-09 18:52:00,30.0,24.0,29.77,WNW,287,5.0,-999.0,80,-99.99,,,-99.99,3.040000,,2013-02-10 01:52:00,
2013-02-09 19:00:00,28.0,25.0,29.77,WNW,296,5.0,-999.0,89,-99.99,,,-99.99,0.060000,,2013-02-10 02:00:00,
2013-02-09 19:52:00,28.0,25.0,29.77,WNW,296,5.0,-999.0,89,-99.99,,,-99.99,0.060000,,2013-02-10 02:52:00,
2013-02-09 20:00:00,27.0,24.0,29.77,NW,307,7.0,-999.0,88,-99.99,,,-99.99,0.050000,,2013-02-10 03:00:00,
2013-02-09 20:52:00,27.0,24.0,29.77,NW,307,7.0,-999.0,88,-99.99,,,-99.99,0.050000,,2013-02-10 03:52:00,
2013-02-09 21:00:00,27.0,24.0,29.78,NW,314,10.0,-999.0,86,-99.99,,,-99.99,0.030000,,2013-02-10 04:00:00,
2013-02-09 21:52:00,27.0,24.0,29.78,NW,314,10.0,-999.0,86,-99.99,,,-99.99,0.030000,,2013-02-10 04:52:00,
2013-02-09 22:00:00,27.0,24.0,29.79,NW,305,11.0,-999.0,88,-99.99,,,-99.99,0.050000,,2013-02-10 05:00:00,
2013-02-09 22:52:00,27.0,24.0,29.79,NW,305,11.0,-999.0,88,-99.99,,,-99.99,0.050000,,2013-02-10 05:52:00,
2013-02-09 23:00:00,28.0,25.0,29.79,WNW,298,9.0,-999.0,89,-99.99,,,-99.99,0.030000,,2013-02-10 06:00:00,
2013-02-09 23:52:00,28.0,25.0,29.79,WNW,298,9.0,-999.0,89,-99.99,,,-99.99,0.030000,,2013-02-10 06:52:00,